Weather in Kuvak-Nikolskoye

Russia / Penza Oblast     53°37′05″N   43°30′27″E
temp.,
°C
wind,
m/s
gust,
m/s
humid.,
%
clouds,
%
prec.,
mm/h
press.,
hPa
HPBL,
m
22 may, sun
sun2200:00+5sw1171100 0.0 100611
03:00+4ssw2274100 0.0 100511
06:00+5ne3477100 0.0 1003137
09:00+9ene4568100 0.0 1001666
12:00+11ene456398 0.3 9991185
15:00+11ne7764100 0.6 9991316
18:00+9ne6870100 0.0 999866
21:00+5ne51072100 0.0 1000396
23 may, mon
mon2300:00+2n410855 0.0 1000223
03:000nnw37935 0.0 1001155
06:00+2nnw58785 0.0 1002396
09:00+6nw575996 0.0 10021613
12:00+7wnw6756100 0.1 10021744
15:00+7wnw6864100 0.1 10041209
18:00+7w587087 0.0 10041010
21:00+4wsw4987100 0.1 1004168
24 may, tue
tue2400:00+4sw5128899 0.0 1004236
03:00+2wsw411925 0.0 1005207
06:00+5wsw5117957 0.0 1005325
09:00+10w5954100 0.0 10051142
12:00+12w6943100 0.0 10062277
15:00+13w71045100 0.0 10062549
18:00+9wnw4764100 0.0 1008629
21:00+6n2384100 0.2 100958
25 may, wed
wed2500:00+6ssw2389100 2.1 1010109
03:00+2wnw339661 2.1 101163
06:00+4nnw34886 0.0 1011220
09:00+8nnw336758 0.1 10111153
12:00+9nw4458100 0.3 10111294
15:00+10nw4458100 0.8 10121390
18:00+9nnw4670100 0.8 1012850
21:00+5nnw37916 1.2 1014163
26 may, thu
thu2600:00+3nw36935 0.0 1015104
03:00+2wnw36914 0.0 101694
06:00+4wnw47835 0.0 1016213
09:00+9wnw56685 0.0 1015775
12:00+13wnw455610 0.0 10141586
15:00+14w345154 0.0 10131815
18:00+13ssw3566100 0.0 1012304
21:00+8s4878100 0.0 1011130